Location: Olsztyn
(53.7767°N, 20.4765°E)
Time: 08:10:06
(UTC+01:00)

Transit 4A - Pass Details

Date: 06 October 2022
Orbit: 871 x 972 km, 66.8° (Epoch: 06 December)

Event Time Altitude Azimuth Distance (km) Brightness Sun altitude
Exits shadow 04:26:24 - 316° (NW) 3,161 10.5 -21.4°
Reaches altitude 10° 04:28:07 10° 323° (NW) 2,569 10.0 -21.2°
Maximum altitude 04:33:33 36° 29° (NNE) 1,365 9.2 -20.5°
Drops below altitude 10° 04:38:55 10° 96° (E) 2,526 11.1 -19.7°
Sets 04:41:35 0° 105° (ESE) 3,459 11.8 -19.3°
